Find Yaogan 32 hao 01 zu 01 xing

NORAD ID: 43642 Int'l Des: 2018-077 Owner: ZLZB Country: CN Constellation: yaogan operational
LEOCIRCULARRETROGRADESSO

当前视图

正在加载3D地球...

关于 Yaogan 32 hao 01 zu 01 xing

正在加载描述...

即将过境

Passes for default location (London). Set your location on the main map for personalized predictions.

高度历史

Loading altitude history...

两行轨道根数

1 43642U 18077A 26149.59093170 .00001119 00000-0 22668-3 0 9997
2 43642 98.1486 178.3585 0001227 99.3582 260.7758 14.63147324407126
Epoch: May 29, 2026 • Age: 14 hours

当前状态

高度 695.5 km
速度 7.52 km/s
星下点 80.15°N, 179.33°W
发射日期 Oct 9, 2018
运行时间 7.6 years
类型 military

技术详情

分类 Payload
质量 500.00 kg
干质量 500.00 kg
总质量 500.00 kg
长度 0.50 m
直径 0.50 m
跨度 1.00 m
形状 Box + 2 Pan
制造商 SECM
阶段状态 In Orbit
所有者/国家 ZLZB/CN

Most Searched